Weather Service Report


017 
ASUS44 KMEG 260110
RWRTN 
TENNESSEE HOURLY STATE WEATHER ROUNDUP
NATIONAL WEATHER SERVICE MEMPHIS TN
800 PM CDT WED MAY 25 2016

TNZ002-004-019-021-049-052-054-088>092-260200-
WEST TENNESSEE
  
CITY           SKY/WX    TMP DP  RH WIND       PRES   REMARKS
MEMPHIS INTL   MOCLDY    73  67  81 E5        30.07S                  
NWS MEMPHIS      N/A     69 N/A N/A MISG        N/A                   
JACKSON        CLOUDY    67  64  90 S7        30.09F                  
DYERSBURG      CLOUDY    66  64  94 SE6       30.08S                  
UNION CITY     CLEAR     68  68 100 S9        30.06S                  
PARIS          CLEAR     64  63  94 S9        30.07F                  
LEXINGTON      CLEAR     66  64  94 S5        30.07F                  
$$

TNZ008-025-027-028-033-062-065-066-260200-
NORTH MIDDLE TENNESSEE
  
CITY           SKY/WX    TMP DP  RH WIND       PRES   REMARKS
NASHVILLE      CLOUDY    67  64  90 NE3       30.16F                  
CLARKSVILLE    CLOUDY    66  64  93 SE9       30.08F                  
SMYRNA         LGT RAIN  69  66  90 S3        30.16R FOG              
COOKEVILLE     MOCLDY    77  63  61 CALM      30.15R                  
CROSSVILLE     MOCLDY    72  60  66 CALM      30.21R                  
$$

TNZ061-075-076-078-094-096-097-260200-
SOUTH MIDDLE TENNESSEE
  
CITY           SKY/WX    TMP DP  RH WIND       PRES   REMARKS
FAYETTEVILLE   MOCLDY    79  59  50 W17       30.19S                  
TULLAHOMA      CLOUDY    73  63  68 W10       30.21R                  
WINCHESTER     CLOUDY    79  61  53 SW7       30.19R                  
MCMINNVILLE    MOCLDY    79  64  61 S6G108    30.17R                  
COLUMBIA       PTCLDY    72  70  94 S7        30.12F                  
SHELBYVILLE    CLOUDY    81  61  50 SW10      30.19R                  
$$

TNZ017-018-042-046-047-260200-
NORTHEAST TENNESSEE
  
CITY           SKY/WX    TMP DP  RH WIND       PRES   REMARKS
TRI CITIES     MOCLDY    75  58  55 W5        30.19R                  
$$

TNZ012-013-036-069-073-074-260200-
CENTRAL EAST TENNESSEE
  
CITY           SKY/WX    TMP DP  RH WIND       PRES   REMARKS
KNOXVILLE      MOCLDY    79  59  50 CALM      30.15S                  
OAK RIDGE      MOCLDY    75  61  61 CALM      30.17R                  
GATLINBURG     MOCLDY    73  59  60 CALM      30.16S                  
$$

TNZ083-085-099-260200-
SOUTHEAST TENNESSEE
  
CITY           SKY/WX    TMP DP  RH WIND       PRES   REMARKS
CHATTANOOGA    MOCLDY    81  56  42 SW6       30.16R                  
$$

SKY/WX REPORTED AS FAIR MEANS FEW OR NO CLOUDS BELOW
12 THOUSAND FEET.

  


019 
ASUS44 KMEG 260110
RWRMEG
MEMPHIS CWA HOURLY WEATHER ROUNDUP
NATIONAL WEATHER SERVICE MEMPHIS TN
800 PM CDT WED MAY 25 2016

...WEST TENNESSEE...
  
CITY           SKY/WX    TMP DP  RH WIND       PRES   REMARKS
MEMPHIS INTL   MOCLDY    73  67  81 E5        30.07S                  
NWS MEMPHIS      N/A     69 N/A N/A MISG        N/A                   
JACKSON        CLOUDY    67  64  90 S7        30.09F                  
LEXINGTON      CLEAR     66  64  94 S5        30.07F                  
DYERSBURG      CLOUDY    66  64  94 SE6       30.08S                  
UNION CITY     CLEAR     68  68 100 S9        30.06S                  
PARIS          CLEAR     64  63  94 S9        30.07F                  


...EASTERN ARKANSAS...
  
CITY           SKY/WX    TMP DP  RH WIND       PRES   REMARKS
JONESBORO      CLEAR     72  68  87 S3        30.03S                  
WEST MEMPHIS   MOCLDY    73  69  87 SE9       30.05R                  
BATESVILLE     CLOUDY    72  66  83 E6        30.03R                  
NEWPORT        CLOUDY    74  72  93 E6        30.05R                  
WALNUT RIDGE   CLEAR     72  64  78 SE6       30.04R                  
BLYTHEVILLE    CLOUDY    69  66  90 SE8       30.07R                  
SEARCY         MOCLDY    75  72  88 E7        30.02S                  
STUTTGART      CLEAR     82  70  65 S10       30.02R                  
PINE BLUFF     CLEAR     81  74  79 S9        30.01R                  
MONTICELLO     CLEAR     81  74  79 S3        30.01R                  


...NORTH MISSISSIPPI...
  
CITY           SKY/WX    TMP DP  RH WIND       PRES   REMARKS
TUPELO         CLOUDY    75  57  53 NE9       30.13S                  
OXFORD         CLOUDY    73  63  68 SE8       30.12R                  
BATESVILLE     CLOUDY    75  68  78 CALM      30.09R                  
OLIVE BRANCH   MOCLDY    70  70 100 SE5       30.08S                  
TUNICA         CLOUDY    73  68  83 E10       30.06S                  
CLARKSDALE     CLOUDY    81  75  83 E8        30.06R                  
CORINTH        CLOUDY    66  63  88 S13       30.10F                  
GREENWOOD      CLOUDY    82  65  56 SE6       30.07R                  
COLUMBUS       CLOUDY    80  63  56 E8        30.10F                  
STARKVILLE     PTCLDY    79  64  61 SE5       30.09F                  
GOLDEN TRIANGL MOCLDY    81  61  50 E9        30.11S                  


...SOUTHEAST MISSOURI...
  
CITY           SKY/WX    TMP DP  RH WIND       PRES   REMARKS
KENNETT        MOCLDY    72  68  88 S6        30.04S                  
WEST PLAINS    CLEAR     73  64  73 S8        30.03R                  
POPLAR BLUFF   CLEAR     72  67  84 S8        30.03R                  
CAPE GIRARDEAU CLEAR     71  66  84 S13       30.03R                  


...NORTHWEST ALABAMA...
  
CITY           SKY/WX    TMP DP  RH WIND       PRES   REMARKS
MUSCLE SHOALS  LGT RAIN  71  61  70 E7        30.18F                  


...MIDDLE TENNESSEE...
  
CITY           SKY/WX    TMP DP  RH WIND       PRES   REMARKS
NASHVILLE      CLOUDY    67  64  90 NE3       30.16F                  
CLARKSVILLE    CLOUDY    66  64  93 SE9       30.08F                  
COLUMBIA       PTCLDY    72  70  94 S7        30.12F                  


...WESTERN KENTUCKY...
  
CITY           SKY/WX    TMP DP  RH WIND       PRES   REMARKS
PADUCAH        CLOUDY    71  67  87 S9        30.04S                  
FORT CAMPBELL  CLOUDY    66  66 100 SE6       30.09R                  


...CENTRAL ARKANSAS...
  
CITY           SKY/WX    TMP DP  RH WIND       PRES   REMARKS
LITTLE ROCK    PTCLDY    82  73  74 SE9       29.99R                  


SKY/WX REPORTED AS FAIR MEANS FEW OR NO CLOUDS BELOW
12 THOUSAND FEET.

  

Return to Home page


Western Regional Climate Center, wrcc@dri.edu